GLD1043 SVMI-SBGR

Flight info

Callsign GLD1043
Flight time N/A
Altitude 35000
Route OSMAR2 OSMAR DCT CBC UL304 OPKAT DCT GEPGO UM417 DOMVI/N0484F370 UM417 BRUTI DCT OPMUS UZ87 ASDOV/N0475F380 DCT TITVO/N0475F390 UZ82 ANSOK UZ42 ZARES
Aircraft B77W/H-SDE1E2E3FGHIJ2J3J4J5M1RWXYZ/LB1D1

Departure

Time 2026-05-01 12:57
Airport Maiquetía Simón Bolívar International Airport (SVMI)

Arrival

Time N/A
Airport São Paulo/Guarulhos–Governor André Franco Montoro International Airport (SBGR)
Time Latitude Longitude Altitude Speed Heading
2026-05-01 12:20 10.59842 -67.00458 205 ft 0 kts 178°
2026-05-01 12:48 10.59862 -67.00459 236 ft 9 kts 178°
2026-05-01 12:48 10.59887 -67.00459 238 ft 7 kts 206°
2026-05-01 12:49 10.59923 -67.00431 237 ft 0 kts 251°
2026-05-01 12:50 10.59921 -67.00438 237 ft 4 kts 255°
2026-05-01 12:50 10.59919 -67.00488 237 ft 8 kts 269°
2026-05-01 12:51 10.59918 -67.00543 237 ft 8 kts 269°
2026-05-01 12:51 10.59917 -67.00597 237 ft 8 kts 268°
2026-05-01 12:51 10.59914 -67.00706 237 ft 8 kts 268°
2026-05-01 12:52 10.59912 -67.00761 238 ft 8 kts 268°
2026-05-01 12:52 10.59908 -67.00870 239 ft 8 kts 268°
2026-05-01 12:52 10.59906 -67.00925 240 ft 8 kts 268°
2026-05-01 12:53 10.59903 -67.01034 242 ft 8 kts 268°
2026-05-01 12:53 10.59902 -67.01070 243 ft 8 kts 268°
2026-05-01 12:53 10.59900 -67.01143 244 ft 7 kts 268°
2026-05-01 12:54 10.59899 -67.01177 245 ft 7 kts 268°
2026-05-01 12:54 10.59980 -67.01238 246 ft 7 kts 354°
2026-05-01 12:54 10.60032 -67.01242 246 ft 7 kts 357°
2026-05-01 12:55 10.60133 -67.01247 245 ft 12 kts 358°
2026-05-01 12:55 10.60226 -67.01249 243 ft 14 kts 359°
2026-05-01 12:55 10.60311 -67.01251 244 ft 11 kts 359°
2026-05-01 12:56 10.60362 -67.01249 246 ft 7 kts 18°
2026-05-01 12:56 10.60379 -67.01210 245 ft 7 kts 78°
2026-05-01 12:56 10.60382 -67.01189 245 ft 0 kts 87°
2026-05-01 12:56 10.60384 -67.01135 244 ft 34 kts 88°
2026-05-01 12:57 10.60401 -67.00609 239 ft 112 kts 88°
2026-05-01 12:57 10.60476 -66.98232 551 ft 196 kts 88°
2026-05-01 12:57 10.60556 -66.96835 1182 ft 200 kts 81°
2026-05-01 12:58 10.60924 -66.95458 1859 ft 204 kts 72°
2026-05-01 12:58 10.61410 -66.94037 2242 ft 225 kts 71°
2026-05-01 12:58 10.61950 -66.92453 2617 ft 245 kts 72°
2026-05-01 12:59 10.63077 -66.89023 3685 ft 266 kts 73°
2026-05-01 12:59 10.63640 -66.87253 4022 ft 263 kts 73°
2026-05-01 12:59 10.64765 -66.83629 4005 ft 268 kts 74°
2026-05-01 13:00 10.65863 -66.80036 4001 ft 265 kts 73°
2026-05-01 13:00 10.66408 -66.78242 4061 ft 266 kts 74°
2026-05-01 13:01 10.67498 -66.74648 5469 ft 271 kts 74°
2026-05-01 13:01 10.68057 -66.72803 6267 ft 274 kts 75°
2026-05-01 13:01 10.69189 -66.69054 7727 ft 281 kts 74°
2026-05-01 13:02 10.69766 -66.67140 8452 ft 285 kts 75°
2026-05-01 13:07 10.59905 -66.13119 20761 ft 440 kts 108°
2026-05-01 13:07 10.58984 -66.10134 21312 ft 444 kts 108°
2026-05-01 13:07 10.57871 -66.07212 21720 ft 447 kts 119°
2026-05-01 13:08 10.56024 -66.04657 22153 ft 451 kts 135°
2026-05-01 13:08 10.53584 -66.02650 22740 ft 451 kts 149°
2026-05-01 13:08 10.50876 -66.01120 23172 ft 454 kts 152°
2026-05-01 13:08 10.48075 -65.99585 23596 ft 460 kts 152°
2026-05-01 13:09 10.45248 -65.98027 24033 ft 463 kts 152°
2026-05-01 13:09 10.42414 -65.96448 24495 ft 466 kts 152°
2026-05-01 13:09 10.39566 -65.94845 24947 ft 468 kts 152°
2026-05-01 13:09 10.36709 -65.93226 25387 ft 472 kts 152°
2026-05-01 13:10 10.33830 -65.91588 25793 ft 475 kts 152°
2026-05-01 13:10 10.30941 -65.89947 26241 ft 476 kts 152°
2026-05-01 13:10 10.28083 -65.88321 26637 ft 479 kts 152°
2026-05-01 13:10 10.25165 -65.86658 26994 ft 483 kts 152°
2026-05-01 13:11 10.22215 -65.84978 27368 ft 487 kts 152°
2026-05-01 13:11 10.19257 -65.83293 27753 ft 490 kts 152°
2026-05-01 13:11 10.16273 -65.81596 28152 ft 492 kts 152°
2026-05-01 13:11 10.13275 -65.79892 28523 ft 495 kts 152°
2026-05-01 13:12 10.10264 -65.78181 28875 ft 498 kts 152°
2026-05-01 13:12 10.07231 -65.76458 29194 ft 501 kts 152°
2026-05-01 13:12 10.04189 -65.74730 29513 ft 504 kts 152°
2026-05-01 13:12 10.01118 -65.72984 29827 ft 506 kts 152°
2026-05-01 13:13 9.98045 -65.71234 30215 ft 506 kts 152°
2026-05-01 13:13 9.94971 -65.69484 30587 ft 505 kts 152°
2026-05-01 13:13 9.91907 -65.67741 30944 ft 506 kts 152°
2026-05-01 13:13 9.88827 -65.65989 31265 ft 507 kts 152°
2026-05-01 13:14 9.85746 -65.64237 31601 ft 508 kts 152°
2026-05-01 13:14 9.82700 -65.62504 31954 ft 508 kts 152°
2026-05-01 13:14 9.79615 -65.60750 32304 ft 508 kts 152°
2026-05-01 13:14 9.76534 -65.58998 32717 ft 507 kts 152°
2026-05-01 13:15 9.73447 -65.57243 33082 ft 508 kts 152°
2026-05-01 13:15 9.70363 -65.55491 33401 ft 509 kts 153°
2026-05-01 13:15 9.67270 -65.53736 33720 ft 510 kts 153°
2026-05-01 13:15 9.64109 -65.52107 34029 ft 509 kts 158°
2026-05-01 13:16 9.60815 -65.50794 34249 ft 509 kts 162°
2026-05-01 13:16 9.57471 -65.49586 34526 ft 509 kts 163°
2026-05-01 13:16 9.54135 -65.48398 34898 ft 507 kts 163°
2026-05-01 13:17 9.40891 -65.43598 34961 ft 502 kts 162°
2026-05-01 13:18 9.31042 -65.39970 34969 ft 501 kts 162°
2026-05-01 13:18 9.24479 -65.37556 34967 ft 502 kts 162°
2026-05-01 13:19 9.17899 -65.35138 34969 ft 503 kts 162°
2026-05-01 13:20 9.08007 -65.31505 34968 ft 504 kts 162°
2026-05-01 13:20 9.01404 -65.29080 34964 ft 505 kts 162°
2026-05-01 13:21 8.91507 -65.25448 34972 ft 506 kts 162°
2026-05-01 13:21 8.84881 -65.23018 34966 ft 505 kts 162°
2026-05-01 13:22 8.78339 -65.20375 34966 ft 505 kts 159°
2026-05-01 13:22 8.71922 -65.17575 34967 ft 505 kts 159°
2026-05-01 13:23 8.65468 -65.14753 34968 ft 504 kts 159°
2026-05-01 13:23 8.59019 -65.11958 34959 ft 504 kts 159°
2026-05-01 13:24 8.52616 -65.09195 34970 ft 503 kts 159°
2026-05-01 13:25 8.42978 -65.05041 34974 ft 502 kts 159°
2026-05-01 13:25 8.36555 -65.02273 34969 ft 501 kts 159°
2026-05-01 13:26 8.30142 -64.99509 34968 ft 501 kts 159°
2026-05-01 13:26 8.23720 -64.96742 34969 ft 501 kts 158°
2026-05-01 13:27 8.17301 -64.93979 34964 ft 501 kts 158°
2026-05-01 13:27 8.07721 -64.89854 34968 ft 501 kts 158°
2026-05-01 13:28 7.98095 -64.85713 34964 ft 501 kts 158°
2026-05-01 13:29 7.85246 -64.80188 34965 ft 502 kts 158°
2026-05-01 13:31 7.65976 -64.71908 34963 ft 503 kts 158°
2026-05-01 13:32 7.49922 -64.65016 34963 ft 502 kts 158°
2026-05-01 13:33 7.33882 -64.58129 34966 ft 499 kts 158°
2026-05-01 13:34 7.21164 -64.52605 34965 ft 498 kts 158°
2026-05-01 13:35 7.11615 -64.48461 34967 ft 498 kts 158°
2026-05-01 13:36 7.02079 -64.44328 34969 ft 498 kts 158°
2026-05-01 13:36 6.92579 -64.40211 34973 ft 498 kts 158°
2026-05-01 13:37 6.87239 -64.37898 34971 ft 498 kts 158°
2026-05-01 13:37 6.79845 -64.34697 34980 ft 497 kts 158°
2026-05-01 13:38 6.70316 -64.30572 34975 ft 496 kts 158°
2026-05-01 13:39 6.63968 -64.27824 34974 ft 496 kts 158°
2026-05-01 13:39 6.57677 -64.25103 34982 ft 495 kts 158°
2026-05-01 13:40 6.51341 -64.22363 34980 ft 495 kts 158°
2026-05-01 13:40 6.45014 -64.19628 34981 ft 495 kts 158°
2026-05-01 13:41 6.38686 -64.16893 34983 ft 495 kts 158°
2026-05-01 13:41 6.32368 -64.14162 34985 ft 493 kts 158°
2026-05-01 13:42 6.26055 -64.11435 34985 ft 494 kts 158°
2026-05-01 13:42 6.20797 -64.09165 34986 ft 495 kts 158°
2026-05-01 13:43 6.13431 -64.05984 34988 ft 496 kts 158°
2026-05-01 13:43 6.08113 -64.03689 34991 ft 496 kts 158°
2026-05-01 13:44 6.01821 -64.00973 34986 ft 493 kts 158°
2026-05-01 13:44 5.95534 -63.98260 35001 ft 491 kts 158°
2026-05-01 13:45 5.89244 -63.95547 34995 ft 491 kts 158°
2026-05-01 13:45 5.82950 -63.92833 35014 ft 492 kts 158°
2026-05-01 13:46 5.76650 -63.90117 34994 ft 492 kts 157°
2026-05-01 13:46 5.70386 -63.87417 35020 ft 493 kts 157°
2026-05-01 13:47 5.64072 -63.84696 35010 ft 494 kts 157°
2026-05-01 13:47 5.57742 -63.81969 35006 ft 495 kts 157°
2026-05-01 13:48 5.51398 -63.79236 35010 ft 495 kts 157°
2026-05-01 13:48 5.45162 -63.76551 35013 ft 495 kts 157°
2026-05-01 13:49 5.38769 -63.73799 35008 ft 494 kts 157°
2026-05-01 13:49 5.32460 -63.71083 35007 ft 493 kts 157°
2026-05-01 13:50 5.26154 -63.68370 35001 ft 491 kts 157°
2026-05-01 13:50 5.19876 -63.65669 35003 ft 490 kts 157°
2026-05-01 13:51 5.13606 -63.62972 35004 ft 490 kts 157°
2026-05-01 13:51 5.07336 -63.60276 35008 ft 490 kts 157°
2026-05-01 13:52 5.01063 -63.57578 35009 ft 491 kts 157°
2026-05-01 13:52 4.94805 -63.54888 35006 ft 493 kts 157°
2026-05-01 13:53 4.88490 -63.52174 35009 ft 494 kts 157°
2026-05-01 13:53 4.78990 -63.48092 35008 ft 495 kts 157°
2026-05-01 13:54 4.72649 -63.45368 35011 ft 496 kts 157°
2026-05-01 13:54 4.66305 -63.42644 35029 ft 496 kts 157°
2026-05-01 13:55 4.59974 -63.39925 35014 ft 493 kts 157°
2026-05-01 13:55 4.53719 -63.37240 35012 ft 491 kts 157°
2026-05-01 13:56 4.47454 -63.34550 35017 ft 488 kts 157°
2026-05-01 13:56 4.41215 -63.31873 35015 ft 487 kts 157°
2026-05-01 13:57 4.34971 -63.29194 35017 ft 488 kts 157°
2026-05-01 13:57 4.28722 -63.26514 35016 ft 489 kts 157°
2026-05-01 13:58 4.22458 -63.23827 35020 ft 491 kts 157°
2026-05-01 13:58 4.16210 -63.21147 35033 ft 492 kts 157°
2026-05-01 13:59 4.09910 -63.18446 35019 ft 493 kts 157°
2026-05-01 13:59 4.03597 -63.15739 35014 ft 494 kts 157°
2026-05-01 14:00 3.97266 -63.13025 35017 ft 494 kts 157°
2026-05-01 14:00 3.90943 -63.10316 35012 ft 492 kts 157°
2026-05-01 14:01 3.84640 -63.07615 35106 ft 493 kts 157°
2026-05-01 14:01 3.81487 -63.06264 35405 ft 493 kts 157°
2026-05-01 14:01 3.78375 -63.04930 35760 ft 491 kts 158°
2026-05-01 14:02 3.75238 -63.03586 36091 ft 490 kts 158°
2026-05-01 14:02 3.72102 -63.02242 36391 ft 490 kts 158°
2026-05-01 14:02 3.68969 -63.00900 36652 ft 490 kts 158°
2026-05-01 14:02 3.65838 -62.99559 36932 ft 490 kts 158°
2026-05-01 14:03 3.59589 -62.96773 37012 ft 491 kts 154°
2026-05-01 14:03 3.53520 -62.93650 37010 ft 489 kts 153°
2026-05-01 14:04 3.47496 -62.90502 37005 ft 487 kts 154°
2026-05-01 14:04 3.42504 -62.87908 37005 ft 486 kts 154°
2026-05-01 14:05 3.35520 -62.84302 37007 ft 485 kts 154°
2026-05-01 14:05 3.29514 -62.81208 37007 ft 485 kts 153°
2026-05-01 14:06 3.23500 -62.78110 37011 ft 486 kts 153°
2026-05-01 14:06 3.17477 -62.75006 37002 ft 487 kts 153°
2026-05-01 14:07 3.11437 -62.71892 37004 ft 488 kts 154°
2026-05-01 14:08 3.02408 -62.67240 37003 ft 489 kts 154°
2026-05-01 14:08 2.96347 -62.64117 37002 ft 490 kts 153°
2026-05-01 14:09 2.90279 -62.60991 36995 ft 490 kts 154°
2026-05-01 14:09 2.84219 -62.57870 37006 ft 490 kts 153°
2026-05-01 14:10 2.78197 -62.54769 36999 ft 489 kts 154°
2026-05-01 14:10 2.72139 -62.51648 36999 ft 488 kts 154°
2026-05-01 14:11 2.66104 -62.48541 36994 ft 486 kts 154°
2026-05-01 14:11 2.57126 -62.43919 36994 ft 481 kts 153°
2026-05-01 14:12 2.51224 -62.40880 36995 ft 479 kts 153°
2026-05-01 14:12 2.45292 -62.37828 36992 ft 478 kts 153°
2026-05-01 14:13 2.40373 -62.35295 36996 ft 477 kts 153°
2026-05-01 14:13 2.33461 -62.31737 36988 ft 479 kts 153°
2026-05-01 14:14 2.27526 -62.28683 37011 ft 481 kts 154°
2026-05-01 14:14 2.21562 -62.25613 36992 ft 483 kts 154°
2026-05-01 14:15 2.15580 -62.22533 36996 ft 485 kts 154°
2026-05-01 14:15 2.09613 -62.19458 36995 ft 486 kts 153°
2026-05-01 14:16 2.03604 -62.16362 36996 ft 486 kts 153°
2026-05-01 14:16 1.97595 -62.13268 36987 ft 486 kts 153°
2026-05-01 14:17 1.91589 -62.10175 36994 ft 485 kts 153°
2026-05-01 14:17 1.85585 -62.07082 36996 ft 485 kts 153°
2026-05-01 14:18 1.79589 -62.03995 37011 ft 485 kts 153°
2026-05-01 14:18 1.74593 -62.01423 36996 ft 485 kts 153°
2026-05-01 14:19 1.67581 -61.97813 36993 ft 485 kts 153°
2026-05-01 14:19 1.61591 -61.94729 37011 ft 484 kts 153°
2026-05-01 14:20 1.52650 -61.90127 36994 ft 483 kts 153°
2026-05-01 14:21 1.46682 -61.87054 36994 ft 482 kts 153°
2026-05-01 14:21 1.40715 -61.83983 36987 ft 481 kts 153°
2026-05-01 14:22 1.31797 -61.79394 37003 ft 480 kts 152°
2026-05-01 14:22 1.25888 -61.76353 36984 ft 480 kts 152°
2026-05-01 14:23 1.19940 -61.73291 36985 ft 480 kts 152°
2026-05-01 14:23 1.13986 -61.70228 36977 ft 480 kts 152°
2026-05-01 14:24 1.08069 -61.67183 36985 ft 481 kts 152°
2026-05-01 14:24 1.02119 -61.64122 36979 ft 481 kts 152°
2026-05-01 14:25 0.96171 -61.61062 36981 ft 480 kts 152°
2026-05-01 14:25 0.90235 -61.58008 36979 ft 480 kts 152°
2026-05-01 14:26 0.81341 -61.53432 36980 ft 479 kts 152°
2026-05-01 14:27 0.75408 -61.50380 36984 ft 479 kts 152°
2026-05-01 14:27 0.69479 -61.47330 36985 ft 478 kts 152°
2026-05-01 14:28 0.60630 -61.42778 36987 ft 479 kts 152°
2026-05-01 14:28 0.54707 -61.39731 36989 ft 479 kts 151°
2026-05-01 14:29 0.48779 -61.36681 36981 ft 479 kts 152°
2026-05-01 14:30 0.36908 -61.30575 36981 ft 480 kts 152°
2026-05-01 14:31 0.28988 -61.26503 36981 ft 481 kts 151°
2026-05-01 14:31 0.22074 -61.22946 36983 ft 482 kts 151°
2026-05-01 14:32 0.16097 -61.19871 36986 ft 482 kts 151°
2026-05-01 14:32 0.11133 -61.17318 36984 ft 483 kts 151°
2026-05-01 14:33 0.05155 -61.14243 36981 ft 483 kts 151°
2026-05-01 14:33 -0.00824 -61.11169 36983 ft 483 kts 151°
2026-05-01 14:34 -0.06813 -61.08088 36982 ft 483 kts 151°
2026-05-01 14:34 -0.12790 -61.05014 36980 ft 483 kts 151°
2026-05-01 14:35 -0.18652 -61.01999 36978 ft 483 kts 151°
2026-05-01 14:35 -0.24595 -60.98942 36978 ft 483 kts 151°
2026-05-01 14:36 -0.30582 -60.95863 36981 ft 483 kts 151°
2026-05-01 14:36 -0.36562 -60.92787 36991 ft 483 kts 151°
2026-05-01 14:37 -0.42526 -60.89720 36986 ft 482 kts 151°
2026-05-01 14:37 -0.48492 -60.86651 36980 ft 482 kts 151°
2026-05-01 14:38 -0.54418 -60.83602 36984 ft 482 kts 151°
2026-05-01 14:38 -0.60381 -60.80535 36977 ft 482 kts 151°
2026-05-01 14:39 -0.66340 -60.77470 36998 ft 482 kts 151°
2026-05-01 14:39 -0.72299 -60.74404 37000 ft 481 kts 151°
2026-05-01 14:40 -0.78259 -60.71338 36979 ft 480 kts 151°
2026-05-01 14:40 -0.84194 -60.68285 36982 ft 479 kts 151°
2026-05-01 14:41 -0.90080 -60.65256 36983 ft 478 kts 151°
2026-05-01 14:41 -0.95996 -60.62212 36988 ft 478 kts 151°
2026-05-01 14:42 -1.01902 -60.59174 36983 ft 477 kts 151°
2026-05-01 14:42 -1.07809 -60.56134 36986 ft 477 kts 151°
2026-05-01 14:43 -1.13720 -60.53091 36988 ft 478 kts 151°
2026-05-01 14:43 -1.19602 -60.50064 36987 ft 478 kts 151°
2026-05-01 14:44 -1.25526 -60.47015 36987 ft 479 kts 151°
2026-05-01 14:44 -1.34410 -60.42440 36990 ft 479 kts 151°
2026-05-01 14:45 -1.43312 -60.37855 37000 ft 480 kts 151°
2026-05-01 14:46 -1.49259 -60.34791 36995 ft 480 kts 151°
2026-05-01 14:46 -1.58178 -60.30196 36992 ft 481 kts 151°
2026-05-01 14:47 -1.64121 -60.27134 36995 ft 481 kts 151°
2026-05-01 14:48 -1.73029 -60.22543 37004 ft 481 kts 151°
2026-05-01 14:48 -1.81956 -60.17944 37006 ft 481 kts 151°
2026-05-01 14:49 -1.93840 -60.11847 36994 ft 481 kts 151°
2026-05-01 14:50 -2.05749 -60.05732 36999 ft 480 kts 151°
2026-05-01 14:51 -2.14628 -60.01171 36996 ft 479 kts 151°
2026-05-01 14:52 -2.23523 -59.96601 37001 ft 478 kts 151°
2026-05-01 14:53 -2.32359 -59.91950 37017 ft 478 kts 150°
2026-05-01 14:53 -2.38182 -59.88841 36993 ft 477 kts 150°
2026-05-01 14:54 -2.44046 -59.85718 36995 ft 477 kts 150°
2026-05-01 14:54 -2.49918 -59.82598 36995 ft 477 kts 150°
2026-05-01 14:55 -2.55787 -59.79480 37018 ft 477 kts 150°
2026-05-01 14:55 -2.61671 -59.76354 37001 ft 478 kts 150°
2026-05-01 14:56 -2.67513 -59.73250 37015 ft 478 kts 150°
2026-05-01 14:56 -2.73389 -59.70127 37000 ft 479 kts 150°
2026-05-01 14:57 -2.79271 -59.67001 36995 ft 479 kts 150°
2026-05-01 14:57 -2.88111 -59.62301 36993 ft 479 kts 150°
2026-05-01 14:58 -2.93998 -59.59170 37000 ft 479 kts 150°
2026-05-01 14:58 -2.99892 -59.56030 36997 ft 480 kts 150°
2026-05-01 14:59 -3.05776 -59.52862 36991 ft 480 kts 150°
2026-05-01 14:59 -3.11675 -59.49777 36995 ft 481 kts 151°
2026-05-01 15:00 -3.20585 -59.45162 37012 ft 481 kts 151°
2026-05-01 15:01 -3.26541 -59.42104 37013 ft 481 kts 151°
2026-05-01 15:01 -3.32501 -59.39042 36990 ft 482 kts 151°
2026-05-01 15:02 -3.38477 -59.35968 36992 ft 483 kts 151°
2026-05-01 15:02 -3.44456 -59.32874 37010 ft 483 kts 150°
2026-05-01 15:03 -3.50432 -59.29766 36997 ft 484 kts 151°
2026-05-01 15:03 -3.56379 -59.26675 36993 ft 485 kts 151°
2026-05-01 15:04 -3.62373 -59.23560 36995 ft 485 kts 151°
2026-05-01 15:04 -3.68380 -59.20438 36995 ft 485 kts 151°
2026-05-01 15:05 -3.74369 -59.17326 36989 ft 485 kts 151°
2026-05-01 15:05 -3.80319 -59.14233 37010 ft 485 kts 151°
2026-05-01 15:06 -3.86310 -59.11118 37001 ft 484 kts 151°
2026-05-01 15:06 -3.92289 -59.08009 36990 ft 484 kts 151°
2026-05-01 15:07 -3.98278 -59.04894 37009 ft 485 kts 151°
2026-05-01 15:07 -4.04281 -59.01771 37012 ft 486 kts 150°
2026-05-01 15:08 -4.10301 -58.98641 36994 ft 487 kts 150°
2026-05-01 15:08 -4.16327 -58.95506 36993 ft 487 kts 150°
2026-05-01 15:09 -4.22314 -58.92390 37008 ft 487 kts 150°
2026-05-01 15:09 -4.28327 -58.89260 36988 ft 487 kts 151°
2026-05-01 15:10 -4.34350 -58.86124 36995 ft 487 kts 151°
2026-05-01 15:10 -4.43325 -58.81449 36993 ft 486 kts 150°
2026-05-01 15:11 -4.52343 -58.76751 37012 ft 486 kts 150°
2026-05-01 15:12 -4.58352 -58.73610 36991 ft 486 kts 150°
2026-05-01 15:12 -4.67327 -58.68834 37007 ft 486 kts 150°
2026-05-01 15:14 -4.82235 -58.60891 36994 ft 486 kts 150°
2026-05-01 15:14 -4.91206 -58.56117 36991 ft 487 kts 150°
2026-05-01 15:15 -5.03224 -58.49719 36988 ft 490 kts 150°
2026-05-01 15:16 -5.15266 -58.43305 36983 ft 492 kts 150°
2026-05-01 15:18 -5.29385 -58.35781 37006 ft 493 kts 150°
2026-05-01 15:19 -5.41490 -58.29328 36982 ft 493 kts 150°
2026-05-01 15:19 -5.50577 -58.24482 36987 ft 493 kts 150°
2026-05-01 15:20 -5.59673 -58.19628 36981 ft 493 kts 150°
2026-05-01 15:21 -5.65733 -58.16395 36983 ft 493 kts 150°
2026-05-01 15:21 -5.71798 -58.13157 37001 ft 493 kts 150°
2026-05-01 15:22 -5.80904 -58.08293 36982 ft 494 kts 150°
2026-05-01 15:22 -5.86947 -58.05067 36993 ft 493 kts 150°
2026-05-01 15:23 -5.93015 -58.01825 36991 ft 493 kts 150°
2026-05-01 15:23 -5.99076 -57.98584 36980 ft 493 kts 150°
2026-05-01 15:24 -6.05091 -57.95370 36991 ft 492 kts 150°
2026-05-01 15:24 -6.11139 -57.92137 36990 ft 492 kts 150°
2026-05-01 15:25 -6.17188 -57.88901 36988 ft 492 kts 150°
2026-05-01 15:25 -6.23234 -57.85667 36988 ft 492 kts 150°
2026-05-01 15:26 -6.29276 -57.82434 36989 ft 491 kts 151°
2026-05-01 15:26 -6.35305 -57.79206 37005 ft 491 kts 151°
2026-05-01 15:27 -6.41336 -57.75978 36984 ft 491 kts 151°
2026-05-01 15:28 -6.50341 -57.71157 36989 ft 490 kts 150°
2026-05-01 15:28 -6.56362 -57.67929 36991 ft 491 kts 150°
2026-05-01 15:29 -6.65421 -57.63074 36984 ft 493 kts 150°
2026-05-01 15:30 -6.77503 -57.56596 36989 ft 491 kts 150°
2026-05-01 15:31 -6.95553 -57.46911 36993 ft 489 kts 150°
2026-05-01 15:32 -7.07568 -57.40459 36985 ft 490 kts 150°
2026-05-01 15:34 -7.25578 -57.30780 37009 ft 490 kts 151°